Home > Time Zones > World Clock > Weather > Japan > Tokyo > Past weeks

Flag for Japan Weather past 2 weeks in Tokyo, Japan

Now
70 °F

Overcast.


Feels Like: 64 °F
Forecast: 68 / 80 °F
Wind: 3 mph from Southwest

Location: Tokyo

Current Time: Jul 7, 2015 at 10:19:48 PM

Latest Report: Jul 7, 2015 at 9:00 PM


Visibility: 4 mi

Pressure: 29.96 "Hg

Humidity: 97%

Dew point: 69 °F

Location of TokyoLocation

Historic Weather in Tokyo — Graph

°F

Tokyo temperature yesterday

Maximum temperature yesterday: 69 °F (at 11:00 AM)
Minimum temperature yesterday: 66 °F (at 11:00 PM)
Average temperature yesterday: 68 °F

Past Weeks' High & Low Weather Summary

 TemperatureHumidityPressure
High85 °F (Jun 28, 1:00 PM)100% (Jun 24, 4:00 AM)29.96 "Hg (Jun 24, 4:00 AM)
Low65 °F (Jun 29, 3:00 AM)38% (Jun 28, 10:00 AM)29.26 "Hg (Jul 1, 1:00 PM)
Average72 °F86%29.72 "Hg
* Reported Jun 22 9:00 PM — Jul 7 9:00 PM, Tokyo, Weather by CustomWeather, © 2015

Note: Actual official high and low records may vary slightly from our data, if they occured in-between our weather recording intervals... More about our weather records

Advertising

Tokyo weather history for previous 24 hours

 ConditionsComfort  
Time TempWeatherWind HumidityBarometerVisibility
9:00 PM
Tue, Jul 7
70 °FOvercast.3 mph97%29.96 "Hg4 mi
8:00 PM70 °FMild.3 mph96%29.93 "HgN/A
7:00 PM71 °FMild.6 mph94%29.93 "HgN/A
6:00 PM72 °FFog.6 mph89%29.92 "Hg4 mi
5:00 PM72 °FMild.3 mph86%29.92 "HgN/A
4:00 PM74 °FMild.6 mph83%29.93 "HgN/A
3:00 PM75 °FOvercast.3 mph77%29.91 "Hg4 mi
2:00 PM75 °FMild.3 mph81%29.91 "HgN/A
1:00 PM73 °FMild.3 mph88%29.92 "HgN/A
11:00 AM72 °FMild.5 mph82%29.94 "HgN/A
10:00 AM71 °FMild.2 mph84%29.93 "HgN/A
9:00 AM71 °FOvercast.3 mph90%29.94 "Hg6 mi
8:00 AM69 °FMild.3 mph92%29.95 "HgN/A
7:00 AM69 °FMild.3 mph94%29.93 "HgN/A
6:00 AM68 °FOvercast.3 mph98%29.91 "Hg6 mi
5:00 AM67 °FMild.2 mph99%29.90 "HgN/A
4:00 AM66 °FMild.1 mph99%29.89 "HgN/A
3:00 AM66 °FOvercast.5 mph99%29.89 "Hg6 mi
2:00 AM66 °FMild.5 mph99%29.90 "HgN/A
1:00 AM67 °FMild.5 mph97%29.91 "HgN/A
12:00 AM66 °FMild.3 mph98%29.92 "HgN/A
11:00 PM
Mon, Jul 6
66 °FMild.2 mph99%29.93 "HgN/A
10:00 PM67 °FMild.3 mph99%29.92 "HgN/A
Weather by CustomWeather, © 2015

See weather overviewHow to use our weather pages